Terminal Aerodrome Forecast
Issued by NWS

Home | Current Version | Previous Version | Text Only | Print | Product List | Glossary On
Versions: 1 2 3 4 5 6 7 8 9 10 11 12 13 14 15 16 17 18 19 20 21 22 23 24 25 26 27 28 29 30 31 32
000
FTUS42 KRAH 202340
TAFRWI
TAF
KRWI 202340Z 2100/2124 02007KT P6SM BKN035 BKN120 OVC250
      TEMPO 2104/2108 5SM -RA SCT015 BKN025
     FM211300 33011G18KT P6SM BKN250
     FM211700 30009KT P6SM SCT250=

USA.gov is the U.S. government's official web portal to all federal, state and local government web resources and services.